Location: Dover
(48.8500°N, 53.9833°W)
Time: 07:18:09
(UTC+00:00)

Cosmos 1072 Rocket - Pass Details

Date: 14 November 2025
Orbit: 947 x 1008 km, 82.9° (Epoch: 12 December)

Event Time Altitude Azimuth Distance (km) Brightness Sun altitude
Rises 21:45:34 0° 174° (S) 3,645 7.5 -17.9°
Reaches altitude 10° 21:48:06 10° 170° (S) 2,695 6.8 -18.3°
Maximum altitude 21:54:07 59° 93° (E) 1,099 4.4 -19.3°
Drops below altitude 10° 22:00:06 10° 16° (NNE) 2,685 6.6 -20.2°
Sets 22:02:38 0° 13° (NNE) 3,632 7.3 -20.7°
